Main page
METAR-TAF:

METAR-TAF

Airports :

Dehradun, India

Jolly Grant Airport

latitude: 30-11-23N, longitude: 78-10-49E, elevation: 558 m

Current weather observation

The report was made 19 minutes ago, at 10:00 UTC
Wind 4 kt from the West/Northwest
Temperature 28°C
Humidity 89%
Pressure 1004 hPa
Visibility: 4000 m
Scattered clouds at a height of 2000 ft
Few clouds at a height of 4000 ft, Cumulonimbus.
Broken clouds at a height of 6000 ft
mist

METAR: VIDN 211000Z 30004KT 4000 BR SCT020 FEW040CB BKN060 28/26 Q1004

Time: 15:49 (10:19 UTC)


TAF: missing

Weather observations and forecasts of more than 4000 airports (METAR and TAF reports).

The available stations are represented by yellow and red dots on the map.

Hover mouse over dot to see the name of the station.

Then click to see weather observations and forecasts.

To change the map : click on the green buttons with a black cross to zoom in, on the green button with a dash to zoom out, or on the green arrows for adjacent maps.


METAR-TAF: